Volver al catálogo

STARLINK-4290

ActivoComunicacionesVLEO
NORAD 53006·PAYLOAD·🇺🇸 United States

Lanzado Jul 7, 2022 desde Cape Canaveral Space Force Station

Loading…

Próximos Pases (próximas 24 horas)

TLE

ActualizadoSource: CelesTrak SupGP

Época: Sep 15, 2026, 01:14 UTC

1 53006C 22076W   26258.05187500  .00042795  00000+0  12252-2 0  2588
2 53006  53.1577 309.8035 0001343  85.7910  82.4893 15.35356061    13

Sigue STARLINK-4290 en tiempo real con AllMySat

Download on the App Store